Flag for Pakistan Weather past 2 weeks in Islamabad, Pakistan

Now
93 °F

Thunderstorms. Broken clouds.


Feels Like: 93 °F
Forecast: 65 / 97 °F
Wind: 9 mph from Northeast

Location: Islamabad Airport

Current Time: May 25, 2015 at 5:35:11 PM

Latest Report: May 25, 2015 at 5:00 PM


Visibility: 4 mi

Pressure: 29.50 "Hg

Humidity: 32%

Dew point: 59 °F

Location of IslamabadLocation

Historic Weather in Islamabad — Graph

°F

Islamabad temperature yesterday

Maximum temperature yesterday: 95 °F (at 3:00 PM)
Minimum temperature yesterday: 77 °F (at 7:00 AM)
Average temperature yesterday: 86 °F

Past Weeks' High & Low Weather Summary

 TemperatureHumidityPressure
High100 °F (May 22, 3:00 PM)94% (May 17, 12:00 PM)29.95 "Hg (May 17, 12:00 PM)
Low66 °F (May 13, 12:00 AM)18% (May 22, 3:00 PM)29.53 "Hg (May 19, 8:00 AM)
Average82 °F51%29.74 "Hg
* Reported May 10 4:00 PM — May 25 4:00 PM, Islamabad, Weather by CustomWeather, © 2015

Note: Actual official high and low records may vary slightly from our data, if they occured in-between our weather recording intervals... More about our weather records

Advertising

Islamabad weather history for previous 24 hours

 ConditionsComfort  
Time TempWeatherWind HumidityBarometerVisibility
4:00 PM
Mon, May 25
97 °FScattered clouds.14 mph19%29.53 "HgN/A
3:00 PM99 °FScattered clouds.14 mph21%29.56 "HgN/A
2:00 PM95 °FPassing clouds.9 mph22%29.59 "HgN/A
1:00 PM93 °FScattered clouds.9 mph24%29.62 "HgN/A
12:00 PM93 °FScattered clouds.12 mph24%29.62 "HgN/A
11:00 AM91 °FPassing clouds.9 mph28%29.65 "HgN/A
10:00 AM88 °FScattered clouds.12 mph29%29.65 "HgN/A
9:00 AM82 °FScattered clouds.14 mph40%29.65 "HgN/A
8:00 AM81 °FScattered clouds.9 mph45%29.68 "Hg4 mi
7:00 AM79 °FScattered clouds.12 mph45%29.65 "Hg4 mi
6:00 AM77 °FScattered clouds.9 mph51%29.59 "Hg4 mi
5:00 AM73 °FPassing clouds.12 mph61%29.62 "Hg4 mi
4:00 AM77 °FPassing clouds.7 mph57%29.62 "Hg4 mi
3:00 AM77 °FPassing clouds.7 mph61%29.62 "Hg4 mi
2:00 AM77 °FPassing clouds.7 mph61%29.62 "Hg4 mi
1:00 AM77 °FPassing clouds.9 mph57%29.65 "Hg4 mi
11:00 PM
Sun, May 24
81 °FPassing clouds.12 mph51%29.65 "Hg4 mi
10:00 PM81 °FPassing clouds.9 mph51%29.65 "Hg4 mi
9:00 PM81 °FPassing clouds.12 mph51%29.65 "HgN/A
8:00 PM84 °FPassing clouds.14 mph43%29.65 "HgN/A
7:00 PM88 °FPassing clouds.18 mph35%29.65 "HgN/A
6:00 PM91 °FPassing clouds.18 mph32%29.62 "HgN/A
5:00 PM93 °FPassing clouds.18 mph28%29.62 "HgN/A
Weather by CustomWeather, © 2015

See weather overviewHow to use our weather pages